Weather Roundup
Issued by NWS Chicago, IL

Home | Current Version | Previous Version | Graphics & Text | Print | Product List | Glossary On
Versions: 1 2 3 4 5 6 7 8 9 10 11 12 13 14 15 16 17 18 19 20 21 22 23 24 25 26 27 28 29 30 31 32 33 34 35 36 37 38 39 40 41 42 43 44 45 46 47 48 49 50
000
NZUS59 KLOT 040721
HRRLOT

CHICAGO AREA WEATHER ROUNDUP
NATIONAL WEATHER SERVICE CHICAGO/ROMEOVILLE IL
200 AM CDT MON MAY 04 2015

NOTE: "FAIR" INDICATES FEW OR NO CLOUDS BELOW 12,000 FEET WITH NO
SIGNIFICANT WEATHER AND/OR OBSTRUCTIONS TO VISIBILITY.

* THESE STATIONS ARE NOT UNDER NWS QUALITY CONTROL. THEY ALSO MAY NOT
  REPORT WEATHER SUCH AS PRECIPITATION OR FOG.

ILZ005-006-012>014-019>023-040800-
NORTHEAST ILLINOIS

CITY           SKY/WX    TMP DP  RH WIND       PRES   REMARKS
OHARE          CLOUDY    67  47  48 SW15G22   29.90S
MIDWAY         MOCLDY    68  47  46 SW13G24   29.92F
AURORA         CLOUDY    67  48  50 S15       29.92S
LANSING*       MOCLDY    66  43  43 S14       29.94F
JOLIET*        MOCLDY    68  48  49 SW7       29.94R
WAUKEGAN       CLOUDY    65  50  58 SW16G23   29.88S
DUPAGE AIRPORT CLOUDY    64  49  57 SW9       29.91S
WHEELING       CLOUDY    67  47  48 SW12      29.92R
KANKAKEE*      MOCLDY    65  47  53 S15       29.96F
MORRIS*        MOCLDY    66  47  50 SW14      29.91S
LEWIS AIRPORT* MOCLDY    67  45  45 SW20      29.93R
NORTHERLY IS     N/A     69  44  40 SW13        N/A
$$

WIZ051-052-058>065-066-070>072-040800-
SOUTHEAST WISCONSIN

CITY           SKY/WX    TMP DP  RH WIND       PRES   REMARKS
MILWAUKEE      CLOUDY    66  51  58 W18G26    29.91R
KENOSHA*       CLOUDY    67  52  58 SW13      29.88R
RACINE*        CLOUDY    66  51  58 SW15      29.88S
BURLINGTON     CLOUDY    62  54  75 W14G21    29.92R
WAUKESHA       RAIN      61  54  77 W13       29.93R
WEST BEND      DRIZZLE   61  54  77 W9        29.89R
$$

INZ001>003-010>013-019-020-040800-
NORTHWEST INDIANA

CITY           SKY/WX    TMP DP  RH WIND       PRES   REMARKS
GARY*          MOCLDY    69  39  33 S10G17    29.93F
MICHIGAN CITY* NOT AVBL
RENSSELAER*    NOT AVBL
VALPARAISO     PTCLDY    64  44  48 S12       29.97F
$$

LMZ740>746-040800-
SOUTHERN LAKE MICHIGAN

STATION/POSITION TIME  SKY/WX   TEMP WIND        PRES    VSBY
                                AIR  DIR/SP/G
                 (UTC)          (F)  (DEG/KT/KT) (MB)    (MI)
HARRISON CRIB    0700            68  210/ 25/ 29   N/A
BURNHAM HARBOR   0700            69  200/ 11/ 17   N/A
CALUMET HARBOR   0700            69  200/ 11/ 16   N/A
BURNS HARBOR     0600            67  180/ 11/ 16 1014.6S
MICHIGAN CITY    0700            67  150/ 15/ 18   N/A
$$

ABBREVIATIONS USED IN REMARKS
   TC - TEMPERATURE IN CELSIUS
  WCI - WIND CHILL INDEX
   HX - HEAT INDEX
  VSB - VISIBILITY
$$


USA.gov is the U.S. government's official web portal to all federal, state and local government web resources and services.